Weather History for Mt. Pocono, PA

Change the Weather History Date:

Wednesday, August 28, 2013

  Actual Average Record
Temperature  
Mean Temperature 68 °F 65 °F  
Max Temperature 73 °F 74 °F 90 °F (1953)
Min Temperature 62 °F 56 °F 33 °F (1941)
Degree Days  
Heating Degree Days 0 2  
Month to date heating degree days 53 33  
Since 1 June heating degree days 140 155  
Since 1 July heating degree days 64 55  
Cooling Degree Days 3 2  
Month to date cooling degree days 57 92  
Year to date cooling degree days 396 294  
Since 1 June cooling degree days 364 275  
Growing Degree Days 17 (Base 50)    
Moisture  
Dew Point 65 °F    
Average Humidity 89    
Maximum Humidity 93    
Minimum Humidity 84    
Precipitation  
Precipitation 0.79 in 0.09 in 4.13 in (2011)
Month to date precipitation 5.47 4.15  
Year to date precipitation 35.48 30.67  
Sea Level Pressure  
Sea Level Pressure 29.94 in    
Wind  
Wind Speed 3 mph (SSE)    
Max Wind Speed 12 mph    
Max Gust Speed 25 mph    
Visibility 6 miles    
Events Fog , Rain    
T = Trace of Precipitation, MM = Missing Value Source: NWS Daily Summary

Daily Weather History Graph

Daily Weather History Graph

Search for Another Location

Airport:

Trip Planner

Search our weather history database for the weather conditions in past years. The results will help you decide how hot, cold, wet, or windy it might be!

Date:

Astronomy

Aug. 28, 2013 Rise Set
Actual Time 6:24 AM EDT 7:40 PM EDT
Civil Twilight 5:55 AM EDT 8:08 PM EDT
Nautical Twilight 5:21 AM EDT 8:42 PM EDT
Astronomical Twilight 4:45 AM EDT 9:18 PM EDT
Moon No Moon Rise 2:17 PM EDT (8/28)
Length of Visible Light 14h 13m
Length of Day
13h 15m
Waning Gibbous, 47% of the Moon is Illuminated
Aug 28
Waning Gibbous
Sep 5
New
Sep 12
First Quarter
Sep 19
Full
Sep 26
Last Quarter

Hourly Weather History & Observations

Time (EDT) Temp. Dew Point Humidity Pressure Visibility Wind Dir Wind Speed Gust Speed Precip Events Conditions
12:53 AM 63.0 °F 61.0 °F 93% 29.95 in 8.0 mi Calm Calm - N/A   Clear
1:53 AM 62.1 °F 60.1 °F 93% 29.93 in 8.0 mi Calm Calm - N/A   Clear
2:53 AM 62.1 °F 60.1 °F 93% 29.92 in 7.0 mi Calm Calm - N/A   Partly Cloudy
3:53 AM 63.0 °F 60.1 °F 90% 29.91 in 7.0 mi Calm Calm - N/A   Mostly Cloudy
4:53 AM 63.0 °F 60.1 °F 90% 29.90 in 9.0 mi Calm Calm - N/A   Clear
5:53 AM 63.0 °F 61.0 °F 93% 29.91 in 8.0 mi Calm Calm - N/A   Clear
6:53 AM 64.9 °F 62.1 °F 90% 29.92 in 7.0 mi Calm Calm - N/A   Overcast
7:53 AM 66.9 °F 64.0 °F 90% 29.92 in 7.0 mi Calm Calm - N/A   Scattered Clouds
8:53 AM 71.1 °F 66.9 °F 87% 29.92 in 8.0 mi SW 3.5 mph - N/A   Mostly Cloudy
9:53 AM 72.0 °F 66.0 °F 81% 29.91 in 8.0 mi West 3.5 mph - N/A   Mostly Cloudy
10:46 AM 71.6 °F 66.2 °F 83% 29.96 in 4.0 mi West 5.8 mph - 0.01 in Rain Light Rain
10:53 AM 70.0 °F 66.9 °F 90% 29.93 in 3.0 mi WNW 4.6 mph - 0.02 in Rain Light Rain
11:00 AM 69.8 °F 66.2 °F 88% 29.95 in 2.5 mi WNW 6.9 mph - 0.01 in Rain Light Rain
11:12 AM 69.8 °F 66.2 °F 88% 29.95 in 2.5 mi WSW 3.5 mph - 0.02 in Rain Light Rain
11:25 AM 69.8 °F 66.2 °F 88% 29.96 in 0.8 mi SW 5.8 mph - 0.21 in Rain Heavy Rain
11:44 AM 68.0 °F 66.2 °F 94% 29.95 in 0.5 mi West 5.8 mph - 0.44 in Fog , Rain Heavy Rain
11:53 AM 68.0 °F 66.0 °F 93% 29.93 in 1.0 mi SW 5.8 mph - 0.51 in Rain Heavy Rain
12:03 PM 68.0 °F 66.2 °F 94% 29.95 in 1.0 mi Calm Calm - 0.07 in Rain Heavy Rain
12:24 PM 68.0 °F 64.4 °F 88% 29.95 in 2.0 mi South 3.5 mph - 0.16 in Rain Rain
12:31 PM 68.0 °F 66.2 °F 94% 29.95 in 2.5 mi South 3.5 mph - 0.17 in Rain Rain
12:38 PM 68.0 °F 66.2 °F 94% 29.95 in 3.0 mi South 4.6 mph - 0.20 in Rain Rain
12:49 PM 69.8 °F 66.2 °F 88% 29.94 in 2.5 mi SSE 3.5 mph - 0.23 in Rain Rain
12:53 PM 69.1 °F 66.0 °F 90% 29.92 in 3.0 mi Calm Calm - 0.24 in Rain Rain
1:08 PM 69.8 °F 66.2 °F 88% 29.94 in 4.0 mi South 4.6 mph - 0.01 in Rain Light Rain
1:18 PM 69.8 °F 66.2 °F 88% 29.94 in 7.0 mi SSE 4.6 mph - 0.01 in Rain Light Rain
1:29 PM 68.0 °F 66.2 °F 94% 29.94 in 6.0 mi SSE 5.8 mph - 0.02 in Rain Light Rain
1:37 PM 68.0 °F 66.2 °F 94% 29.94 in 8.0 mi South 6.9 mph - 0.02 in Rain Light Rain
1:53 PM 69.1 °F 66.0 °F 90% 29.92 in 8.0 mi South 6.9 mph - 0.02 in Rain Light Rain
2:02 PM 69.8 °F 66.2 °F 88% 29.94 in 7.0 mi SSW 4.6 mph - 0.00 in   Overcast
2:26 PM 69.8 °F 66.2 °F 88% 29.93 in 10.0 mi Calm Calm - 0.00 in   Overcast
2:53 PM 71.1 °F 66.0 °F 84% 29.90 in 10.0 mi Calm Calm - 0.00 in   Mostly Cloudy
3:01 PM 69.8 °F 66.2 °F 88% 29.93 in 10.0 mi SE 5.8 mph - N/A   Overcast
3:21 PM 69.8 °F 66.2 °F 88% 29.93 in 10.0 mi ESE 5.8 mph - N/A   Overcast
3:50 PM 69.8 °F 66.2 °F 88% 29.93 in 9.0 mi SE 6.9 mph - N/A   Overcast
3:53 PM 69.1 °F 66.0 °F 90% 29.90 in 9.0 mi SE 5.8 mph - N/A   Overcast
4:06 PM 69.8 °F 66.2 °F 88% 29.92 in 9.0 mi SE 5.8 mph - N/A   Overcast
4:50 PM 69.8 °F 66.2 °F 88% 29.93 in 9.0 mi South 4.6 mph - N/A   Overcast
4:53 PM 69.1 °F 66.0 °F 90% 29.91 in 9.0 mi SSE 5.8 mph - N/A   Overcast
5:20 PM 69.8 °F 66.2 °F 88% 29.94 in 10.0 mi SSE 5.8 mph - N/A   Overcast
5:53 PM 70.0 °F 66.0 °F 87% 29.90 in 10.0 mi South 3.5 mph - N/A   Mostly Cloudy
6:02 PM 69.8 °F 66.2 °F 88% 29.93 in 10.0 mi Calm Calm - N/A   Mostly Cloudy
6:13 PM 71.6 °F 64.4 °F 78% 29.93 in 10.0 mi Calm Calm - N/A   Scattered Clouds
6:53 PM 70.0 °F 66.0 °F 87% 29.90 in 9.0 mi East 4.6 mph - N/A   Mostly Cloudy
7:53 PM 68.0 °F 66.0 °F 93% 29.90 in 8.0 mi ESE 3.5 mph - N/A   Overcast
8:31 PM 68.0 °F 66.2 °F 94% 29.94 in 8.0 mi Calm Calm - N/A   Mostly Cloudy
8:40 PM 68.0 °F 64.4 °F 88% 29.95 in 7.0 mi Calm Calm - N/A   Overcast
8:53 PM 68.0 °F 64.9 °F 90% 29.93 in 7.0 mi North 3.5 mph - N/A   Overcast
9:16 PM 66.2 °F 64.4 °F 94% 29.96 in 7.0 mi North 3.5 mph - N/A   Mostly Cloudy
9:27 PM 66.2 °F 64.4 °F 94% 29.96 in 8.0 mi North 5.8 mph - N/A   Scattered Clouds
9:53 PM 66.0 °F 64.0 °F 93% 29.93 in 8.0 mi Calm Calm - N/A   Clear
10:53 PM 63.0 °F 61.0 °F 93% 29.94 in 2.5 mi Calm Calm - N/A   Clear
11:01 PM 64.4 °F 62.6 °F 94% 29.97 in 1.5 mi Calm Calm - N/A   Clear
11:05 PM 62.6 °F 62.6 °F 100% 29.97 in 3.0 mi Calm Calm - N/A   Clear
11:30 PM 64.4 °F 64.4 °F 100% 29.97 in 2.5 mi East 3.5 mph - N/A   Partly Cloudy
11:32 PM 64.4 °F 64.4 °F 100% 29.97 in 1.0 mi East 4.6 mph - N/A   Mist
11:37 PM 64.4 °F 64.4 °F 100% 29.97 in 0.2 mi East 3.5 mph - N/A Fog Fog
11:50 PM 66.2 °F 64.4 °F 94% 29.97 in 1.0 mi ENE 5.8 mph - N/A   Overcast
11:53 PM 66.0 °F 64.9 °F 96% 29.95 in 2.0 mi ENE 5.8 mph - N/A   Overcast